[[{"header":{"parameterUnit":"m.s-1","parameterCategory":2,"la1":30.2992,"la2":30.254,"lo1":-89.0895,"lo2":-89.0443,"dy":0.0025,"dx":0.0025,"nx":19,"ny":19,"refTime":"2026-03-31T09:00:00:Z","depth":"0","parameterNumber":2,"parameterNumberName":"U-component_of_CURRENTS"},"data":[0,0,0,0.1022,0.1021,0.0982,0.0982,0.0987,0.0988,0,0,0,0,0,0,0,0,0,0,0,0.1038,0.1037,0.1022,0.1021,0.0982,0.0982,0.0987,0.0988,0,0,0,0,0,0,0,0,0,0,0,0.1038,0.1037,0.1037,0.1021,0.0982,0.0982,0.0987,0.1001,0,0,0,0,0,0,0,0,0,0,0.1032,0.1033,0.1037,0.1037,0.1021,0.0982,0.0982,0.1001,0.1001,0.1023,0,0.1022,0,0.1009,0.099,0.099,0,0,0,0.1014,0.1034,0.1032,0.1037,0.1021,0.0982,0.0998,0.1,0.1,0.1022,0.1022,0.1021,0.1009,0.099,0.099,0.102,0.102,0,0,0.1016,0.1022,0.1033,0.1032,0.1018,0.0999,0.0997,0.0999,0.0998,0.1022,0.1021,0.1009,0.099,0.0991,0.102,0.102,0,0,0,0.1027,0.1023,0.102,0.1032,0.1023,0.0998,0.0995,0.0997,0.0999,0.1021,0.1009,0.0991,0.0991,0.102,0.102,0.1031,0,0,0,0.1028,0.103,0.1021,0.1022,0.1023,0.1,0.0994,0.0999,0.0998,0.1009,0.0991,0.0991,0.102,0.102,0.1031,0.103,0,0,0,0.1038,0.1031,0.103,0.1023,0.101,0.1,0.1,0.0998,0.0992,0.099,0.0991,0.102,0.102,0.103,0.103,0.1114,0,0,0,0.1039,0.1028,0.103,0.1019,0.101,0.0996,0.0999,0.0987,0.0984,0.0991,0.102,0.102,0.103,0.103,0.1112,0.1116,0.1124,0,0,0.1023,0.1026,0.102,0.1022,0.1007,0.1,0.0993,0.0992,0.0997,0.1022,0.1022,0.1031,0.103,0.1113,0.1125,0.1134,0,0,0,0.1014,0.1011,0.1007,0.1001,0.0996,0.0997,0.0991,0.0998,0.1012,0.0997,0.1031,0.103,0.1083,0.1081,0.1088,0.0972,0.1021,0.1021,0.1021,0.0976,0.0987,0.0982,0.0994,0.0993,0.0995,0.1002,0.1015,0.1018,0.1028,0.104,0.1107,0.1103,0.1109,0.0988,0.1043,0.1043,0.1043,0.1043,0.0955,0.0954,0.0978,0.0982,0.0998,0.1001,0.1023,0.103,0.1078,0.105,0.1102,0.1091,0.1116,0.0985,0.1044,0.1044,0.1043,0.1043,0.1043,0.0929,0.0933,0.0951,0.0972,0.0991,0.1009,0.1053,0.1069,0.1097,0.1125,0.1183,0.1183,0.1072,0.118,0.1181,0.1181,0.1181,0.1182,0.1182,0.0893,0.0914,0.0929,0.096,0.0979,0.1017,0.1076,0.1125,0.1194,0.1198,0.1199,0.1072,0.115,0.1151,0.1187,0.1186,0.1186,0.1185,0.1185,0.0857,0.0875,0.0897,0.092,0.0972,0.1004,0.1086,0.1197,0.1271,0.1312,0.1145,0.1257,0.1268,0.1262,0.1265,0.1329,0.1329,0.1329,0.1329,0.0828,0.084,0.087,0.0902,0.0949,0.0996,0.1044,0.1114,0.1157,0.1131,0.1137,0.1064,0.1063,0.1057,0.1055,0.1052,0.1061,0.1061,0.106,0.0806,0.0827,0.0836,0.0879,0.0935,0.0977,0.0968,0.091,0.0969,0.1035,0.0975,0.0986,0.0862,0.087,0.0845,0.0852,0.0843,0,0]},{"header":{"parameterUnit":"m.s-1","parameterCategory":2,"la1":30.2992,"la2":30.254,"lo1":-89.0895,"lo2":-89.0443,"dy":0.0025,"dx":0.0025,"nx":19,"ny":19,"refTime":"2026-03-31T09:00:00:Z","depth":"0","parameterNumber":3,"parameterNumberName":"V-component_of_CURRENTS"},"data":[0,0,0,0.015,0.015,0.0119,0.0119,0.0067,0.0066,0,0,0,0,0,0,0,0,0,0,0,0.0158,0.0158,0.015,0.015,0.0119,0.0119,0.0067,0.0066,0,0,0,0,0,0,0,0,0,0,0,0.0158,0.0158,0.0158,0.015,0.0119,0.0119,0.0067,0.009,0,0,0,0,0,0,0,0,0,0,0.012,0.0131,0.0158,0.0158,0.015,0.0119,0.0119,0.0091,0.0089,0.0081,0,0.0084,0,0.0081,0.0064,0.0064,0,0,0,0.0137,0.0133,0.0132,0.0158,0.015,0.012,0.0129,0.009,0.0087,0.0078,0.0083,0.0081,0.008,0.0064,0.0063,0.0026,0.0025,0,0,0.0139,0.0143,0.0134,0.013,0.0151,0.0131,0.0129,0.0088,0.0085,0.0083,0.008,0.0079,0.0063,0.0063,0.0026,0.0026,0,0,0,0.0152,0.0144,0.0144,0.0132,0.0131,0.013,0.0128,0.0086,0.0088,0.008,0.0079,0.0063,0.0063,0.0026,0.0026,0.0046,0,0,0,0.0153,0.0154,0.0145,0.0145,0.0133,0.011,0.0127,0.0091,0.0086,0.0079,0.0063,0.0062,0.0026,0.0026,0.0045,0.0079,0,0,0,0.0158,0.0154,0.0155,0.0146,0.014,0.011,0.0109,0.009,0.0086,0.0064,0.0062,0.0026,0.0026,0.0045,0.0077,0.0154,0,0,0,0.0157,0.0156,0.0155,0.0153,0.014,0.0123,0.0109,0.0089,0.007,0.0063,0.0026,0.0026,0.0045,0.0077,0.0152,0.0259,0.0277,0,0,0.0154,0.0156,0.0155,0.0153,0.0149,0.0126,0.0105,0.0077,0.0062,0.0036,0.0035,0.0046,0.0077,0.0154,0.0241,0.026,0,0,0,0.0153,0.0155,0.0152,0.0151,0.0139,0.0126,0.009,0.0074,0.0049,0.0053,0.0034,0.0053,0.0102,0.016,0.0175,0.0166,0.0024,0.0024,0.0024,0.0163,0.0159,0.0158,0.015,0.014,0.0117,0.0106,0.0077,0.0049,0.004,0.006,0.0119,0.0179,0.0192,0.0179,0.0035,0.0035,0.0035,0.0035,0.017,0.0178,0.0167,0.0164,0.0156,0.014,0.0114,0.0098,0.0109,0.006,0.0106,0.0165,0.0209,0.019,0.0036,0.0036,0.0036,0.0036,0.0036,0.0187,0.0192,0.0183,0.0182,0.0186,0.0168,0.0213,0.0179,0.0154,0.018,0.0286,0.0287,0.0285,0.0216,0.0217,0.0217,0.0218,0.0218,0.0218,0.0218,0.0208,0.0211,0.0207,0.022,0.0251,0.0278,0.0317,0.036,0.0341,0.0342,0.0307,0.0176,0.0186,0.0226,0.0224,0.0223,0.0223,0.0222,0.0256,0.0241,0.0248,0.0257,0.0298,0.038,0.0412,0.0548,0.058,0.0631,0.0522,0.0437,0.0459,0.0447,0.0464,0.0574,0.0574,0.0574,0.0574,0.0287,0.0277,0.0289,0.0314,0.0375,0.0441,0.0625,0.0721,0.0736,0.0714,0.0658,0.0612,0.0598,0.0623,0.0608,0.0625,0.0773,0.0773,0.0773,0.0316,0.031,0.0329,0.0337,0.0408,0.0533,0.0712,0.082,0.0807,0.0774,0.0624,0.0616,0.0533,0.0512,0.0534,0.0513,0.0535,0,0]}],[{"header":{"parameterUnit":"m.s-1","parameterCategory":2,"la1":30.2992,"la2":30.254,"lo1":-89.0895,"lo2":-89.0443,"dy":0.0025,"dx":0.0025,"nx":19,"ny":19,"refTime":"2026-03-31T09:00:00:Z","depth":"2","parameterNumber":2,"parameterNumberName":"U-component_of_CURRENTS"},"data":[0,0,0,0.1126,0.1125,0.1084,0.1084,0.1086,0.1087,0,0,0,0,0,0,0,0,0,0,0,0.1141,0.1141,0.1126,0.1125,0.1084,0.1084,0.1086,0.1087,0,0,0,0,0,0,0,0,0,0,0,0.1141,0.1141,0.1141,0.1125,0.1085,0.1084,0.1086,0.1102,0,0,0,0,0,0,0,0,0,0,0.1134,0.1137,0.1141,0.1141,0.1125,0.1085,0.1084,0.1102,0.1101,0.1122,0,0.1119,0,0.1107,0.1089,0.1089,0,0,0,0.1119,0.1138,0.1134,0.1141,0.1125,0.1085,0.1101,0.1101,0.11,0.1121,0.1119,0.1119,0.1107,0.1089,0.1089,0.1114,0.1114,0,0,0.1121,0.1127,0.1135,0.1134,0.112,0.1102,0.11,0.11,0.1099,0.1119,0.1119,0.1107,0.1089,0.1089,0.1114,0.1114,0,0,0,0.1132,0.1129,0.1123,0.1134,0.1124,0.1101,0.1098,0.1098,0.1099,0.1118,0.1107,0.1089,0.109,0.1114,0.1114,0.1122,0,0,0,0.1133,0.1136,0.1125,0.1127,0.1124,0.1102,0.1097,0.1098,0.1098,0.1107,0.1089,0.109,0.1114,0.1114,0.1121,0.112,0,0,0,0.1142,0.1136,0.1135,0.1127,0.1113,0.1101,0.11,0.1097,0.1092,0.1089,0.109,0.1114,0.1114,0.1121,0.112,0.12,0,0,0,0.1145,0.1133,0.1135,0.1122,0.1113,0.1097,0.11,0.1087,0.1083,0.1089,0.1114,0.1114,0.1121,0.1119,0.1199,0.1171,0.1176,0,0,0.1129,0.1131,0.1124,0.1125,0.1107,0.1102,0.1093,0.109,0.1095,0.1117,0.1117,0.1121,0.112,0.12,0.1179,0.1184,0,0,0,0.1119,0.1114,0.111,0.1102,0.1095,0.1094,0.1088,0.1096,0.1107,0.1094,0.1122,0.1121,0.1172,0.1151,0.1155,0.1115,0.1115,0.1115,0.1115,0.1087,0.1093,0.1085,0.1092,0.1089,0.109,0.1095,0.1108,0.1111,0.112,0.1128,0.1191,0.1167,0.117,0.1131,0.1131,0.1131,0.1131,0.1131,0.1065,0.1062,0.1079,0.1076,0.1089,0.109,0.1112,0.1118,0.1163,0.1136,0.1187,0.1159,0.1175,0.1131,0.1131,0.1131,0.1131,0.1131,0.1131,0.1043,0.1045,0.1055,0.1066,0.108,0.1095,0.1136,0.115,0.1178,0.1203,0.124,0.1239,0.1222,0.1257,0.1257,0.1257,0.1258,0.1258,0.1258,0.1016,0.1028,0.1035,0.1055,0.1068,0.1101,0.1156,0.1204,0.1256,0.1249,0.1249,0.1235,0.1231,0.1231,0.1263,0.1262,0.1262,0.1261,0.1261,0.0989,0.0997,0.1008,0.1023,0.1063,0.1086,0.1165,0.1254,0.1321,0.1348,0.1294,0.1291,0.13,0.1295,0.1298,0.1346,0.1346,0.1346,0.1346,0.0968,0.0973,0.0985,0.1006,0.1045,0.1078,0.1097,0.1095,0.1175,0.1159,0.1166,0.1094,0.1096,0.1088,0.1089,0.1085,0.1078,0.1077,0.1076,0.0956,0.0964,0.0965,0.0988,0.1031,0.1057,0.0998,0.0848,0.0884,0.1059,0.1052,0.1341,0.1253,0.1249,0.1251,0.1246,0.1246,0,0]},{"header":{"parameterUnit":"m.s-1","parameterCategory":2,"la1":30.2992,"la2":30.254,"lo1":-89.0895,"lo2":-89.0443,"dy":0.0025,"dx":0.0025,"nx":19,"ny":19,"refTime":"2026-03-31T09:00:00:Z","depth":"2","parameterNumber":3,"parameterNumberName":"V-component_of_CURRENTS"},"data":[0,0,0,0.0035,0.0035,0.0004,0.0004,-0.0053,-0.0054,0,0,0,0,0,0,0,0,0,0,0,0.0044,0.0044,0.0035,0.0035,0.0004,0.0004,-0.0053,-0.0054,0,0,0,0,0,0,0,0,0,0,0,0.0044,0.0044,0.0044,0.0035,0.0004,0.0004,-0.0053,-0.0029,0,0,0,0,0,0,0,0,0,0,0.0002,0.0014,0.0044,0.0044,0.0035,0.0004,0.0004,-0.0028,-0.003,-0.0041,0,-0.0037,0,-0.0041,-0.0057,-0.0057,0,0,0,0.0022,0.0016,0.0015,0.0044,0.0034,0.0004,0.0014,-0.0029,-0.0032,-0.0044,-0.0038,-0.004,-0.0041,-0.0057,-0.0057,-0.0087,-0.0087,0,0,0.0023,0.0028,0.0017,0.0013,0.0037,0.0015,0.0014,-0.0031,-0.0034,-0.0038,-0.0041,-0.0042,-0.0057,-0.0058,-0.0087,-0.0087,0,0,0,0.0037,0.003,0.0029,0.0015,0.0015,0.0015,0.0013,-0.0032,-0.003,-0.0042,-0.0043,-0.0058,-0.0058,-0.0087,-0.0087,-0.0063,0,0,0,0.0037,0.0039,0.003,0.0031,0.0016,-0.0007,0.0012,-0.0027,-0.0032,-0.0043,-0.0058,-0.0059,-0.0087,-0.0087,-0.0063,-0.0033,0,0,0,0.0044,0.0039,0.004,0.0032,0.0026,-0.0007,-0.0008,-0.0029,-0.0033,-0.0057,-0.0059,-0.0087,-0.0087,-0.0064,-0.0035,0.0031,0,0,0,0.0042,0.0043,0.0041,0.004,0.0026,0.0011,-0.0008,-0.0027,-0.0047,-0.0058,-0.0087,-0.0087,-0.0064,-0.0036,0.0029,0.0103,0.0118,0,0,0.0041,0.0042,0.0043,0.004,0.0039,0.0014,-0.0002,-0.0033,-0.005,-0.0076,-0.0077,-0.0063,-0.0035,0.003,0.0105,0.0121,0,0,0,0.0041,0.0043,0.0042,0.0042,0.0031,0.0021,-0.0015,-0.003,-0.0053,-0.0058,-0.0069,-0.0052,-0.0011,0.0029,0.0041,-0.0087,-0.0087,-0.0087,-0.0087,0.0051,0.0049,0.005,0.0046,0.0038,0.0018,0.0009,-0.0016,-0.0047,-0.0051,-0.0037,0.0023,0.0063,0.0073,-0.0054,-0.0054,-0.0054,-0.0054,-0.0054,0.0059,0.0067,0.0061,0.0061,0.0058,0.0046,0.0026,0.0011,0.0021,-0.0025,0.0013,0.0045,0.0088,-0.0052,-0.0053,-0.0053,-0.0053,-0.0053,-0.0053,0.0076,0.008,0.0075,0.0079,0.0088,0.0075,0.0118,0.0088,0.0065,0.0089,0.0161,0.0161,0.0069,0.0116,0.0117,0.0117,0.0118,0.0118,0.0118,0.0102,0.0096,0.0101,0.0102,0.0117,0.0148,0.0176,0.0212,0.0239,0.0214,0.0215,0.0081,0.0076,0.008,0.0125,0.0123,0.0123,0.0122,0.0122,0.0134,0.0122,0.0133,0.0144,0.0187,0.0261,0.0294,0.0406,0.043,0.0466,0.0295,0.0289,0.0302,0.0292,0.0301,0.0401,0.0401,0.0401,0.0401,0.0157,0.015,0.0167,0.0194,0.0255,0.0315,0.0465,0.0504,0.0494,0.0438,0.0435,0.0387,0.0376,0.0389,0.0377,0.0386,0.0508,0.0508,0.0508,0.0178,0.0177,0.0197,0.0215,0.0285,0.0397,0.0526,0.0539,0.0492,0.0506,0.0386,0.0422,0.0343,0.0329,0.0339,0.0323,0.0334,0,0]}],[{"header":{"parameterUnit":"m.s-1","parameterCategory":2,"la1":30.2992,"la2":30.254,"lo1":-89.0895,"lo2":-89.0443,"dy":0.0025,"dx":0.0025,"nx":19,"ny":19,"refTime":"2026-03-31T09:00:00:Z","depth":"4","parameterNumber":2,"parameterNumberName":"U-component_of_CURRENTS"},"data":[0,0,0,0.0398,0.0398,0.0508,0.0509,0.0736,0.0737,0,0,0,0,0,0,0,0,0,0,0,0.0405,0.0405,0.0398,0.0398,0.0507,0.0509,0.0735,0.0737,0,0,0,0,0,0,0,0,0,0,0,0.0405,0.0405,0.0405,0.0398,0.0507,0.0509,0.0735,0.0649,0,0,0,0,0,0,0,0,0,0,0.054,0.0516,0.0405,0.0405,0.0398,0.0507,0.0509,0.0645,0.0654,0.0687,0,0.0684,0,0.0663,0.0747,0.0748,0,0,0,0.0474,0.0508,0.0504,0.0405,0.0398,0.0506,0.048,0.065,0.0661,0.07,0.0686,0.0693,0.0667,0.0748,0.0749,0.0916,0.0917,0,0,0.0468,0.0466,0.0496,0.051,0.0401,0.0476,0.0482,0.0657,0.0678,0.0687,0.0697,0.0671,0.0749,0.075,0.0915,0.0916,0,0,0,0.04,0.0462,0.0456,0.0503,0.0486,0.0477,0.0485,0.0673,0.066,0.0699,0.0674,0.075,0.0752,0.0914,0.0916,0.0912,0,0,0,0.04,0.0415,0.0452,0.0458,0.0481,0.0566,0.0497,0.0651,0.0667,0.0672,0.075,0.0753,0.0914,0.0915,0.091,0.0871,0,0,0,0.0404,0.0416,0.0413,0.0457,0.046,0.0562,0.0566,0.0655,0.0647,0.0748,0.0754,0.0913,0.0915,0.0909,0.087,0.0879,0,0,0,0.0422,0.0419,0.0414,0.04,0.0458,0.0496,0.0565,0.0665,0.0755,0.0751,0.0914,0.0915,0.0908,0.087,0.0879,0.0718,0,0,0,0.0422,0.042,0.0404,0.0399,0.0398,0.0488,0.0541,0.0706,0.079,0.0874,0.0878,0.0911,0.087,0.0879,0.0818,0,0,0,0,0.0405,0.0402,0.04,0.0393,0.0417,0.048,0.0611,0.0697,0.0868,0.0829,0.0945,0.092,0.0925,0.0833,0.0923,0.0923,0.0923,0.0923,0.0923,0.0434,0.0409,0.0403,0.039,0.0418,0.0516,0.0613,0.0759,0.0842,0.0942,0.0944,0.098,0.0887,0.0996,0.0996,0.0996,0.0996,0.0996,0.0996,0.0428,0.041,0.0405,0.0395,0.0427,0.0487,0.0639,0.0747,0.0907,0.0967,0.0975,0.087,0.0997,0.0997,0.0997,0.0996,0.0996,0.0996,0.0996,0.0429,0.0422,0.0417,0.0415,0.0441,0.0501,0.059,0.0749,0.0893,0.0937,0.0866,0.0974,0.0941,0.0968,0.0968,0.0967,0.0967,0.0967,0.0967,0.0439,0.0434,0.0437,0.0435,0.0434,0.0478,0.0603,0.0674,0.0809,0.0823,0.0944,0.097,0.0971,0.0941,0.0966,0.0966,0.0966,0.0966,0.0966,0.0432,0.0444,0.0442,0.0439,0.0428,0.0432,0.0531,0.0581,0.0642,0.065,0.0767,0.0777,0.0755,0.0761,0.0723,0.0683,0.0681,0.0679,0,0.0434,0.0437,0.0437,0.0424,0.04,0.041,0.0401,0.0449,0.0561,0.0562,0.0676,0.0811,0.0817,0.0794,0.0797,0.0752,0,0,0,0.0435,0.0435,0.0424,0.0414,0.0374,0.0364,0.0398,0.0406,0.0533,0.049,0.0629,0.0642,0.0774,0.0961,0.0951,0.0952,0.0903,0,0]},{"header":{"parameterUnit":"m.s-1","parameterCategory":2,"la1":30.2992,"la2":30.254,"lo1":-89.0895,"lo2":-89.0443,"dy":0.0025,"dx":0.0025,"nx":19,"ny":19,"refTime":"2026-03-31T09:00:00:Z","depth":"4","parameterNumber":3,"parameterNumberName":"V-component_of_CURRENTS"},"data":[0,0,0,0.0215,0.0216,0.0204,0.0203,0.007,0.0069,0,0,0,0,0,0,0,0,0,0,0,0.0203,0.0204,0.0215,0.0217,0.0204,0.0203,0.007,0.0069,0,0,0,0,0,0,0,0,0,0,0,0.0203,0.0204,0.0204,0.0217,0.0204,0.0203,0.007,0.0099,0,0,0,0,0,0,0,0,0,0,0.0121,0.0139,0.0204,0.0204,0.0217,0.0204,0.0203,0.0101,0.0097,0.0055,0,0.0074,0,0.0092,0.0061,0.006,0,0,0,0.0175,0.0142,0.0154,0.0204,0.0217,0.0204,0.0198,0.0099,0.0095,0.0049,0.0073,0.0069,0.009,0.006,0.006,0.0057,0.0057,0,0,0.0175,0.0177,0.0158,0.0152,0.024,0.0199,0.0198,0.0097,0.0092,0.0072,0.0067,0.0088,0.0059,0.0058,0.0056,0.0057,0,0,0,0.0206,0.0178,0.0192,0.0156,0.0177,0.0199,0.0198,0.0095,0.0106,0.0066,0.0086,0.0059,0.0057,0.0055,0.0056,0.01,0,0,0,0.0204,0.0199,0.0193,0.019,0.018,0.0153,0.0198,0.0112,0.0102,0.0087,0.0059,0.0056,0.0054,0.0056,0.0097,0.0125,0,0,0,0.0199,0.0198,0.0208,0.0191,0.0209,0.0156,0.0158,0.011,0.0116,0.006,0.0056,0.0053,0.0055,0.0094,0.012,0.0118,0,0,0,0.0183,0.0195,0.0208,0.0232,0.021,0.0251,0.0159,0.014,0.01,0.0058,0.0054,0.0056,0.0093,0.0117,0.0116,0.0063,0,0,0,0.0186,0.0196,0.0212,0.0224,0.0273,0.0248,0.0294,0.0183,0.0117,0.0069,0.0069,0.0098,0.012,0.0118,0.0182,0,0,0,0,0.0205,0.0216,0.0238,0.0268,0.0304,0.0331,0.0276,0.0254,0.0176,0.0114,0.0126,0.014,0.0136,0.0101,0.0066,0.0066,0.0065,0.0065,0.0065,0.0198,0.0223,0.0256,0.0299,0.0336,0.0374,0.0379,0.0337,0.0259,0.024,0.0196,0.0256,0.0225,0.0215,0.0215,0.0215,0.0215,0.0216,0.0216,0.0205,0.0224,0.0264,0.0301,0.0362,0.0403,0.0439,0.04,0.0359,0.0296,0.0288,0.0177,0.0221,0.022,0.0219,0.0218,0.0218,0.0218,0.0217,0.0201,0.0211,0.0232,0.0279,0.034,0.0408,0.0444,0.0435,0.039,0.0381,0.0285,0.0285,0.0254,0.0336,0.0336,0.0337,0.0337,0.0337,0.0337,0.0184,0.0204,0.0216,0.0265,0.0298,0.0358,0.0421,0.0423,0.0399,0.0345,0.0362,0.0297,0.0293,0.0262,0.0339,0.0339,0.0338,0.0338,0.0338,0.0174,0.0177,0.0194,0.0216,0.0285,0.0327,0.039,0.0403,0.0386,0.0356,0.0324,0.0324,0.0296,0.0292,0.0259,0.0339,0.0338,0.0338,0,0.0162,0.0166,0.0186,0.0213,0.0259,0.0319,0.033,0.0353,0.0338,0.032,0.0371,0.0335,0.0334,0.0302,0.0298,0.026,0,0,0,0.0153,0.0164,0.0175,0.0204,0.0253,0.0296,0.034,0.033,0.0336,0.0332,0.0327,0.033,0.0352,0.0346,0.0303,0.0298,0.0246,0,0]}]]